Great Bend, KS

5:56 PM CDT on June 26, 2017 (GMT -0500)
Great Bend Municipal

Weather History for KGBD - April, 2012

Change the Weather History Date:

Monday, April 16, 2012

  Actual Average Record
Temperature  
Mean Temperature 50 °F -  
Max Temperature 62 °F 71 °F 92 °F (1964)
Min Temperature 39 °F 44 °F 22 °F (1951)
Degree Days  
Heating Degree Days 14    
Moisture  
Dew Point 39 °F    
Average Humidity 64    
Maximum Humidity 87    
Minimum Humidity 42    
Precipitation  
Precipitation 0.00 in - - ()
Sea Level Pressure  
Sea Level Pressure 30.13 in    
Wind  
Wind Speed 10 mph (West)    
Max Wind Speed 18 mph    
Max Gust Speed 28 mph    
Visibility 10 miles    
Events      
Averages and records for this station are not official NWS values.
T = Trace of Precipitation, MM = Missing Value Source: NWS Daily Summary

Daily Weather History Graph

Daily Weather History Graph

Search for Another Location

Airport or City:

Trip Planner

Search our weather history database for the weather conditions in past years. The results will help you decide how hot, cold, wet, or windy it might be!

Date:

Astronomy

Apr. 16, 2012 Rise Set
Actual Time 6:57 AM CDT 8:13 PM CDT
Civil Twilight 6:30 AM CDT 8:40 PM CDT
Nautical Twilight 5:57 AM CDT 9:13 PM CDT
Astronomical Twilight 5:23 AM CDT 9:48 PM CDT
Moon 4:23 AM CDT (4/16) 4:12 PM CDT (4/16)
Length of Visible Light 14h 10m
Length of Day
13h 15m
Waning Crescent, 19% of the Moon is Illuminated
Apr 16
Waning Crescent
Apr 21
New
Apr 29
First Quarter
May 5
Full
May 12
Last Quarter

Hourly Weather History & Observations

Time (CDT) Temp. Windchill Dew Point Humidity Pressure Visibility Wind Dir Wind Speed Gust Speed Precip Events Conditions
12:15 AM 48.2 °F - 37.4 °F 66% 29.92 in 10.0 mi WNW 18.4 mph 27.6 mph N/A   Clear
12:35 AM 46.4 °F 40.4 °F 37.4 °F 71% 29.92 in 10.0 mi WNW 13.8 mph - N/A   Clear
12:55 AM 46.4 °F 40.7 °F 37.4 °F 71% 29.93 in 10.0 mi WNW 12.7 mph - N/A   Clear
1:15 AM 46.4 °F 41.1 °F 37.4 °F 71% 29.94 in 10.0 mi WNW 11.5 mph - N/A   Clear
1:35 AM 44.6 °F 38.8 °F 37.4 °F 76% 29.95 in 10.0 mi WNW 11.5 mph - N/A   Clear
1:55 AM 44.6 °F 38.8 °F 37.4 °F 76% 29.96 in 10.0 mi WNW 11.5 mph - N/A   Clear
2:15 AM 44.6 °F 38.8 °F 37.4 °F 76% 29.98 in 10.0 mi West 11.5 mph - N/A   Clear
2:35 AM 42.8 °F 37.0 °F 37.4 °F 81% 29.98 in 10.0 mi West 10.4 mph - N/A   Clear
2:55 AM 42.8 °F 37.5 °F 37.4 °F 81% 29.99 in 10.0 mi West 9.2 mph - N/A   Clear
3:15 AM 42.8 °F 36.6 °F 37.4 °F 81% 30.01 in 10.0 mi West 11.5 mph - N/A   Clear
3:55 AM 42.8 °F 36.6 °F 37.4 °F 81% 30.02 in 10.0 mi WNW 11.5 mph - N/A   Clear
4:15 AM 42.8 °F 36.6 °F 35.6 °F 76% 30.02 in 10.0 mi NW 11.5 mph - N/A   Clear
4:35 AM 42.8 °F 36.6 °F 35.6 °F 76% 30.03 in 10.0 mi NW 11.5 mph - N/A   Clear
4:55 AM 42.8 °F 36.2 °F 35.6 °F 76% 30.03 in 10.0 mi NW 12.7 mph - N/A   Clear
5:35 AM 42.8 °F 37.0 °F 35.6 °F 76% 30.04 in 10.0 mi NW 10.4 mph - N/A   Clear
5:55 AM 41.0 °F 35.2 °F 35.6 °F 81% 30.05 in 10.0 mi NW 9.2 mph - N/A   Clear
6:15 AM 41.0 °F 35.2 °F 35.6 °F 81% 30.05 in 10.0 mi NW 9.2 mph - N/A   Clear
6:35 AM 39.2 °F 32.5 °F 35.6 °F 87% 30.05 in 10.0 mi NW 10.4 mph - N/A   Clear
6:55 AM 39.2 °F 33.0 °F 35.6 °F 87% 30.08 in 10.0 mi NW 9.2 mph - N/A   Clear
7:15 AM 39.2 °F 33.6 °F 33.8 °F 81% 30.10 in 10.0 mi WNW 8.1 mph - N/A   Clear
7:35 AM 39.2 °F 37.0 °F 35.6 °F 87% 30.11 in 10.0 mi West 3.5 mph - N/A   Clear
7:55 AM 39.2 °F 37.0 °F 35.6 °F 87% 30.12 in 10.0 mi WSW 3.5 mph - N/A   Clear
8:15 AM 42.8 °F 40.1 °F 37.4 °F 81% 30.13 in 10.0 mi WNW 4.6 mph - N/A   Clear
8:35 AM 44.6 °F 39.2 °F 37.4 °F 76% 30.12 in 10.0 mi NW 10.4 mph - N/A   Clear
8:55 AM 46.4 °F 41.9 °F 39.2 °F 76% 30.13 in 10.0 mi NNW 9.2 mph - N/A   Clear
9:15 AM 48.2 °F - 39.2 °F 71% 30.14 in 10.0 mi NW 9.2 mph - N/A   Clear
9:35 AM 48.2 °F - 41.0 °F 76% 30.16 in 10.0 mi NW 8.1 mph - N/A   Clear
9:55 AM 51.8 °F - 41.0 °F 67% 30.16 in 10.0 mi NNW 8.1 mph - N/A   Clear
10:15 AM 51.8 °F - 39.2 °F 62% 30.18 in 10.0 mi NNW 5.8 mph - N/A   Clear
10:35 AM 53.6 °F - 42.8 °F 67% 30.18 in 10.0 mi North 8.1 mph - N/A   Clear
10:55 AM 53.6 °F - 39.2 °F 58% 30.19 in 10.0 mi NW 8.1 mph - N/A   Clear
11:15 AM 53.6 °F - 39.2 °F 58% 30.19 in 10.0 mi North 6.9 mph - N/A   Clear
11:35 AM 55.4 °F - 42.8 °F 63% 30.20 in 10.0 mi NW 6.9 mph - N/A   Clear
11:55 AM 55.4 °F - 42.8 °F 63% 30.20 in 10.0 mi NW 6.9 mph - N/A   Clear
12:15 PM 55.4 °F - 39.2 °F 54% 30.19 in 10.0 mi Calm Calm - N/A   Clear
12:35 PM 57.2 °F - 41.0 °F 55% 30.20 in 10.0 mi NNE 5.8 mph - N/A   Clear
12:55 PM 57.2 °F - 39.2 °F 51% 30.19 in 10.0 mi Calm Calm - N/A   Clear
1:15 PM 57.2 °F - 39.2 °F 51% 30.19 in 10.0 mi SW 3.5 mph - N/A   Clear
1:35 PM 59.0 °F - 37.4 °F 45% 30.19 in 10.0 mi Calm Calm - N/A   Clear
1:55 PM 60.8 °F - 39.2 °F 45% 30.19 in 10.0 mi WSW 6.9 mph - N/A   Clear
2:15 PM 60.8 °F - 37.4 °F 42% 30.19 in 10.0 mi ESE 4.6 mph - N/A   Clear
2:35 PM 62.6 °F - 39.2 °F 42% 30.18 in 10.0 mi SSW 3.5 mph - N/A   Partly Cloudy
2:55 PM 62.6 °F - 41.0 °F 45% 30.18 in 10.0 mi WSW 4.6 mph - N/A   Partly Cloudy
3:15 PM 60.8 °F - 37.4 °F 42% 30.18 in 10.0 mi Calm Calm - N/A   Mostly Cloudy
3:35 PM 62.6 °F - 41.0 °F 45% 30.17 in 10.0 mi South 5.8 mph - N/A   Overcast
3:55 PM 60.8 °F - 39.2 °F 45% 30.17 in 10.0 mi SSW 6.9 mph - N/A   Overcast
4:15 PM 60.8 °F - 42.8 °F 52% 30.17 in 10.0 mi SSW 5.8 mph - N/A   Overcast
4:35 PM 60.8 °F - 41.0 °F 48% 30.17 in 10.0 mi SW 3.5 mph - N/A   Overcast
4:55 PM 60.8 °F - 41.0 °F 48% 30.17 in 10.0 mi South 4.6 mph - N/A   Overcast
5:15 PM 60.8 °F - 41.0 °F 48% 30.17 in 10.0 mi South 4.6 mph - N/A   Overcast
5:35 PM 60.8 °F - 42.8 °F 52% 30.17 in 10.0 mi South 3.5 mph - N/A   Overcast
5:55 PM 60.8 °F - 37.4 °F 42% 30.17 in 10.0 mi Calm Calm - N/A   Overcast
6:15 PM 62.6 °F - 39.2 °F 42% 30.17 in 10.0 mi SSE 3.5 mph - N/A   Overcast
6:35 PM 62.6 °F - 41.0 °F 45% 30.17 in 10.0 mi SSE 4.6 mph - N/A   Overcast
6:55 PM 62.6 °F - 39.2 °F 42% 30.17 in 10.0 mi SE 5.8 mph - N/A   Scattered Clouds
7:15 PM 60.8 °F - 39.2 °F 45% 30.18 in 10.0 mi ESE 6.9 mph - N/A   Mostly Cloudy
7:35 PM 60.8 °F - 39.2 °F 45% 30.18 in 10.0 mi ESE 6.9 mph - N/A   Mostly Cloudy
7:55 PM 59.0 °F - 41.0 °F 51% 30.18 in 10.0 mi ESE 8.1 mph - N/A   Mostly Cloudy
8:15 PM 57.2 °F - 41.0 °F 55% 30.18 in 10.0 mi SE 6.9 mph - N/A   Partly Cloudy
8:35 PM 53.6 °F - 41.0 °F 62% 30.18 in 10.0 mi SE 8.1 mph - N/A   Partly Cloudy
8:55 PM 53.6 °F - 41.0 °F 62% 30.19 in 10.0 mi ESE 8.1 mph - N/A   Clear
9:15 PM 53.6 °F - 41.0 °F 62% 30.20 in 10.0 mi SE 6.9 mph - N/A   Clear
9:35 PM 53.6 °F - 42.8 °F 67% 30.20 in 10.0 mi SE 8.1 mph - N/A   Clear
9:55 PM 51.8 °F - 41.0 °F 67% 30.20 in 10.0 mi SE 9.2 mph - N/A   Clear
10:15 PM 50.0 °F - 41.0 °F 71% 30.21 in 10.0 mi SSE 6.9 mph - N/A   Clear
10:35 PM 50.0 °F - 42.8 °F 76% 30.20 in 10.0 mi SSE 10.4 mph - N/A   Clear
10:55 PM 50.0 °F - 42.8 °F 76% 30.21 in 10.0 mi SSE 10.4 mph - N/A   Clear
11:15 PM 50.0 °F - 42.8 °F 76% 30.21 in 10.0 mi SSE 11.5 mph - N/A   Clear
11:35 PM 48.2 °F - 41.0 °F 76% 30.21 in 10.0 mi SSE 8.1 mph - N/A   Clear
11:55 PM 48.2 °F - 41.0 °F 76% 30.22 in 10.0 mi SSE 3.5 mph - N/A   Clear